Brunswick, GA (31524)

10:20 PM EDT on April 25, 2015 (GMT -0400)
McKinnon | | Change Station
CLOSE
Current Station
Airport
Location: Saint Simons Island,
Elevation: 20 ft
Nearby Weather Stations
Active Advisory: Severe Thunderstorm Watch

Elev 20 ft 31.15 °N, 81.39 °W | Updated 27 minutes ago

Thunderstorm
Thunderstorm
74 °F
Feels Like 74 °F
N
17
Wind Variable Wind from WSW
Gusts 28 mph

Today
High -- | Low -- °F
--% Chance of Precip.
Yesterday
High -- | Low -- °F
Precip. -- in
6:47 AM 8:00 PM
Waxing Crescent, 51% visible
Pressure 29.76 in
Visibility 7.0 miles
Clouds Few 6000 ft
Scattered Clouds 10000 ft
Mostly Cloudy 12000 ft
Dew Point 70 °F
Humidity 87%
Rainfall 0.05 in
Snow Depth Not available.
UV 0 out of 12
Pollen 7.20 out of 12
Air Quality Not available.
Flu Activity Sporadic
METAR KSSI 260153Z AUTO 24015G24KT 7SM -TSRA FEW060 SCT100 BKN120 23/21 A2976 RMK AO2 LTG DSNT W-N RAB46 TSB53 SLP076 P0001 T02330211

More Conditions Fewer Conditions

Pressure 29.76 in
Visibility 7.0 miles
Clouds Few 6000 ft
Scattered Clouds 10000 ft
Mostly Cloudy 12000 ft
Dew Point 70 °F
Humidity 87%
Rainfall 0.05 in
Snow Depth Not available.
UV 0 out of 12
Pollen 7.20 out of 12
Air Quality Not available.
Flu Activity Sporadic
METAR KSSI 260153Z AUTO 24015G24KT 7SM -TSRA FEW060 SCT100 BKN120 23/21 A2976 RMK AO2 LTG DSNT W-N RAB46 TSB53 SLP076 P0001 T02330211

More Conditions Fewer Conditions

10-Day Weather Forecast

Almanac

Astronomy

Apr. 25, 2015 Rise Set
Actual Time
Civil Twilight
Nautical Twilight
Astronomical Twilight
Moon
Length of Visible Light
Length of Day
Tomorrow will be .
, % of the Moon is Illuminated

Today's Extremes

State Highs State Lows

Community

WunderPhotos

Upload Photos

1,816,902 photos uploaded!

WunderBlogs® & News

Nearby

Air Quality

  Air Quality AQ Index Pollutant
Not available.

Snow Depth

Station Depth Elevation

Earthquake Activity

City Distance Mag. Time & Date
Minimum magnitude displayed is 2.5.

Coastal Water Temperatures

Place Temperature

Stations

Nearby Weather Stations

Station Location Temp. Windchill Dew Point Humidity Wind Precip. Elev Updated Type
                   
Severe Thunderstorm Watch
Statement as of 10:03 PM EDT on April 25, 2015

Severe Thunderstorm Watch 114 remains in effect until 1100 PM EDT

GA
. Georgia counties included are

Appling Atkinson Bacon
Ben Hill Berrien Brantley
Camden Charlton Clinch
Coffee Echols Glynn
Irwin Jeff Davis Lanier
Pierce Ware Wayne